| time (UTC) | temp F | wind direction | speed MPH | gust MPH | rain 1hr in | rain 24hr in | rain mn in | humidity % | barometer mb |
| 20260503022456 | 45 | 119 | 0.0 | 1.0 | 0.00 | 0.10 | 0.10 | 58 | 1013.8 |
| 20260503021951 | 45 | 95 | 0.0 | 0.0 | 0.00 | 0.10 | 0.10 | 59 | 1013.8 |
| 20260503021448 | 45 | 143 | 0.0 | 1.0 | 0.00 | 0.10 | 0.10 | 60 | 1013.8 |
| 20260503020945 | 45 | 228 | 2.0 | 3.0 | 0.00 | 0.10 | 0.10 | 57 | 1013.9 |
| 20260503020443 | 45 | 163 | 2.0 | 2.0 | 0.00 | 0.10 | 0.10 | 59 | 1013.9 |
| 20260503015939 | 44 | 119 | 1.0 | 1.0 | 0.00 | 0.10 | 0.10 | 58 | 1013.9 |
| 20260503015436 | 44 | 137 | 1.0 | 1.0 | 0.00 | 0.10 | 0.10 | 63 | 1013.7 |
| 20260503014932 | 44 | 117 | 0.0 | 0.0 | 0.00 | 0.10 | 0.10 | 59 | 1013.6 |
| 20260503014429 | 44 | 122 | 0.0 | 1.0 | 0.00 | 0.10 | 0.10 | 59 | 1013.8 |
| 20260503013927 | 45 | 117 | 0.0 | 0.0 | 0.00 | 0.10 | 0.10 | 61 | 1013.6 |
| 20260503013424 | 45 | 117 | 0.0 | 0.0 | 0.00 | 0.10 | 0.10 | 59 | 1013.7 |
| 20260503012921 | 45 | 121 | 0.0 | 0.0 | 0.00 | 0.10 | 0.10 | 59 | 1013.6 |
| 20260503012419 | 45 | 117 | 0.0 | 0.0 | 0.00 | 0.10 | 0.10 | 58 | 1013.8 |
| 20260503011915 | 46 | 113 | 0.0 | 0.0 | 0.00 | 0.10 | 0.10 | 58 | 1013.7 |
| 20260503011412 | 46 | 117 | 0.0 | 0.0 | 0.00 | 0.10 | 0.10 | 57 | 1013.8 |
| 20260503010909 | 46 | 110 | 1.0 | 1.0 | 0.00 | 0.10 | 0.10 | 58 | 1013.8 |
| 20260503010406 | 46 | 120 | 0.0 | 1.0 | 0.00 | 0.10 | 0.10 | 57 | 1013.6 |
| 20260503005903 | 46 | 122 | 0.0 | 1.0 | 0.00 | 0.10 | 0.10 | 55 | 1013.5 |
| 20260503005400 | 47 | 124 | 0.0 | 1.0 | 0.00 | 0.10 | 0.10 | 54 | 1013.4 |
| 20260503004856 | 47 | 119 | 1.0 | 1.0 | 0.00 | 0.10 | 0.10 | 55 | 1013.4 |
| 20260503004354 | 47 | 99 | 0.0 | 1.0 | 0.00 | 0.10 | 0.10 | 56 | 1013.6 |
| 20260503003852 | 48 | 113 | 0.0 | 0.0 | 0.00 | 0.10 | 0.10 | 55 | 1013.5 |
| 20260503003348 | 48 | 354 | 2.0 | 3.0 | 0.00 | 0.10 | 0.10 | 52 | 1013.3 |
| 20260503002845 | 48 | 163 | 1.0 | 1.0 | 0.00 | 0.10 | 0.10 | 53 | 1013.5 |
| 20260503002342 | 48 | 108 | 1.0 | 2.0 | 0.00 | 0.10 | 0.10 | 54 | 1013.2 |
| 20260503001838 | 48 | 129 | 1.0 | 1.0 | 0.00 | 0.10 | 0.10 | 54 | 1013.4 |
| 20260503001335 | 48 | 157 | 2.0 | 2.0 | 0.00 | 0.10 | 0.10 | 53 | 1013.4 |
| 20260503000833 | 49 | 112 | 0.0 | 0.0 | 0.00 | 0.10 | 0.10 | 54 | 1013.2 |
| 20260503000330 | 49 | 112 | 1.0 | 1.0 | 0.00 | 0.10 | 0.10 | 54 | 1013.2 |
| 20260502235827 | 49 | 117 | 0.0 | 0.0 | 0.00 | 0.10 | 0.10 | 54 | 1013.2 |
| 20260502235324 | 49 | 146 | 2.0 | 2.0 | 0.00 | 0.10 | 0.10 | 51 | 1013.0 |
| 20260502234820 | 49 | 150 | 0.0 | 1.0 | 0.00 | 0.10 | 0.10 | 54 | 1013.0 |
| 20260502234318 | 49 | 185 | 2.0 | 2.0 | 0.00 | 0.10 | 0.10 | 56 | 1013.0 |
| 20260502233814 | 49 | 113 | 0.0 | 1.0 | 0.00 | 0.10 | 0.10 | 60 | 1012.9 |
| 20260502233311 | 50 | 106 | 0.0 | 0.0 | 0.00 | 0.10 | 0.10 | 60 | 1012.7 |
| 20260502232808 | 50 | 128 | 1.0 | 1.0 | 0.00 | 0.10 | 0.10 | 58 | 1012.8 |
| 20260502232305 | 51 | 102 | 0.0 | 0.0 | 0.00 | 0.10 | 0.10 | 57 | 1012.7 |
| 20260502231800 | 51 | 106 | 0.0 | 0.0 | 0.00 | 0.10 | 0.10 | 57 | 1012.5 |
| 20260502231258 | 51 | 109 | 0.0 | 0.0 | 0.00 | 0.10 | 0.10 | 58 | 1012.4 |
| 20260502230756 | 51 | 103 | 0.0 | 0.0 | 0.00 | 0.10 | 0.10 | 56 | 1012.6 |
| 20260502230254 | 52 | 142 | 1.0 | 1.0 | 0.00 | 0.10 | 0.10 | 54 | 1012.4 |
| 20260502225750 | 52 | 104 | 0.0 | 0.0 | 0.00 | 0.10 | 0.10 | 57 | 1012.8 |
| 20260502225247 | 52 | 104 | 0.0 | 0.0 | 0.00 | 0.10 | 0.10 | 56 | 1012.6 |
| 20260502224744 | 52 | 108 | 0.0 | 0.0 | 0.00 | 0.10 | 0.10 | 55 | 1012.7 |
| 20260502224240 | 52 | 111 | 0.0 | 0.0 | 0.00 | 0.10 | 0.10 | 55 | 1012.6 |
| 20260502223738 | 52 | 108 | 1.0 | 1.0 | 0.00 | 0.10 | 0.10 | 57 | 1012.5 |
| 20260502223236 | 52 | 117 | 0.0 | 0.0 | 0.00 | 0.10 | 0.10 | 59 | 1012.8 |
| 20260502222733 | 52 | 259 | 2.0 | 2.0 | 0.00 | 0.10 | 0.10 | 57 | 1012.5 |
| 20260502222230 | 53 | 118 | 2.0 | 2.0 | 0.00 | 0.10 | 0.10 | 58 | 1012.6 |
| 20260502221725 | 52 | 107 | 0.0 | 1.0 | 0.00 | 0.10 | 0.10 | 57 | 1012.5 |
| 20260502221223 | 53 | 100 | 0.0 | 0.0 | 0.00 | 0.10 | 0.10 | 57 | 1012.3 |
| 20260502220719 | 53 | 121 | 1.0 | 1.0 | 0.00 | 0.10 | 0.10 | 55 | 1012.5 |
| 20260502220215 | 53 | 122 | 0.0 | 1.0 | 0.00 | 0.10 | 0.10 | 55 | 1012.5 |
| 20260502215712 | 53 | 103 | 0.0 | 0.0 | 0.00 | 0.10 | 0.10 | 55 | 1012.6 |
| 20260502215209 | 54 | 137 | 1.0 | 2.0 | 0.00 | 0.10 | 0.10 | 52 | 1012.4 |
| 20260502214707 | 53 | 93 | 0.0 | 0.0 | 0.00 | 0.10 | 0.10 | 53 | 1012.3 |
| 20260502214204 | 55 | 231 | 3.0 | 4.0 | 0.00 | 0.10 | 0.10 | 50 | 1012.1 |
| 20260502213701 | 55 | 199 | 2.0 | 2.0 | 0.00 | 0.10 | 0.10 | 50 | 1012.4 |
| 20260502213158 | 55 | 104 | 1.0 | 1.0 | 0.00 | 0.10 | 0.10 | 48 | 1012.2 |
| 20260502212656 | 55 | 105 | 1.0 | 1.0 | 0.00 | 0.10 | 0.10 | 52 | 1012.1 |
| 20260502212154 | 54 | 96 | 1.0 | 1.0 | 0.00 | 0.10 | 0.10 | 51 | 1012.2 |
| 20260502211649 | 54 | 139 | 1.0 | 2.0 | 0.00 | 0.10 | 0.10 | 50 | 1012.3 |
| 20260502211141 | 54 | 42 | 2.0 | 2.0 | 0.00 | 0.10 | 0.10 | 49 | 1011.9 |
| 20260502210639 | 53 | 98 | 2.0 | 3.0 | 0.00 | 0.10 | 0.10 | 50 | 1012.0 |
| 20260502210136 | 53 | 93 | 1.0 | 1.0 | 0.00 | 0.10 | 0.10 | 50 | 1012.3 |
| 20260502205632 | 54 | 115 | 0.0 | 0.0 | 0.00 | 0.10 | 0.10 | 53 | 1012.1 |
| 20260502205129 | 53 | 283 | 2.0 | 2.0 | 0.00 | 0.10 | 0.10 | 49 | 1012.1 |
| 20260502204626 | 53 | 154 | 1.0 | 2.0 | 0.00 | 0.10 | 0.10 | 49 | 1012.2 |
| 20260502204124 | 53 | 306 | 2.0 | 3.0 | 0.00 | 0.10 | 0.10 | 49 | 1012.1 |
| 20260502203621 | 54 | 103 | 1.0 | 1.0 | 0.00 | 0.10 | 0.10 | 51 | 1012.2 |
| 20260502203119 | 55 | 100 | 0.0 | 0.0 | 0.00 | 0.10 | 0.10 | 55 | 1012.2 |
| 20260502202613 | 56 | 85 | 1.0 | 1.0 | 0.00 | 0.10 | 0.10 | 48 | 1012.3 |
| 20260502202112 | 57 | 265 | 1.0 | 2.0 | 0.00 | 0.10 | 0.10 | 50 | 1012.3 |
| 20260502201608 | 59 | 90 | 1.0 | 1.0 | 0.00 | 0.10 | 0.10 | 53 | 1012.3 |
| 20260502201104 | 56 | 222 | 2.0 | 2.0 | 0.00 | 0.10 | 0.10 | 52 | 1012.4 |
| 20260502200559 | 55 | 311 | 3.0 | 3.0 | 0.00 | 0.10 | 0.10 | 52 | 1012.4 |
| 20260502200052 | 57 | 99 | 1.0 | 2.0 | 0.00 | 0.10 | 0.10 | 51 | 1012.4 |
| 20260502195550 | 57 | 97 | 1.0 | 1.0 | 0.00 | 0.10 | 0.10 | 50 | 1012.4 |
| 20260502195045 | 59 | 110 | 0.0 | 1.0 | 0.00 | 0.10 | 0.10 | 50 | 1012.5 |
| 20260502194542 | 57 | 110 | 0.0 | 1.0 | 0.00 | 0.10 | 0.10 | 55 | 1012.6 |
| 20260502194039 | 57 | 115 | 1.0 | 2.0 | 0.00 | 0.10 | 0.10 | 52 | 1012.6 |
| 20260502193536 | 55 | 114 | 3.0 | 3.0 | 0.00 | 0.10 | 0.10 | 52 | 1013.0 |
| 20260502193033 | 55 | 112 | 0.0 | 0.0 | 0.00 | 0.10 | 0.10 | 55 | 1013.1 |
| 20260502192528 | 56 | 93 | 1.0 | 1.0 | 0.00 | 0.10 | 0.10 | 58 | 1013.0 |
| 20260502192026 | 55 | 260 | 4.0 | 6.0 | 0.00 | 0.10 | 0.10 | 57 | 1012.7 |
| 20260502191523 | 55 | 103 | 1.0 | 2.0 | 0.00 | 0.10 | 0.10 | 58 | 1012.9 |
| 20260502191021 | 58 | 326 | 2.0 | 3.0 | 0.00 | 0.10 | 0.10 | 54 | 1013.1 |
| 20260502190518 | 56 | 134 | 2.0 | 2.0 | 0.00 | 0.10 | 0.10 | 55 | 1013.2 |
| 20260502190015 | 56 | 103 | 0.0 | 1.0 | 0.00 | 0.10 | 0.10 | 55 | 1013.1 |
| 20260502185509 | 55 | 140 | 1.0 | 2.0 | 0.00 | 0.10 | 0.10 | 58 | 1013.3 |
| 20260502185007 | 55 | 102 | 1.0 | 1.0 | 0.00 | 0.10 | 0.10 | 56 | 1013.4 |
| 20260502184502 | 55 | 117 | 1.0 | 2.0 | 0.00 | 0.10 | 0.10 | 57 | 1013.3 |
| 20260502183959 | 53 | 100 | 0.0 | 1.0 | 0.00 | 0.10 | 0.10 | 61 | 1013.5 |
| 20260502183455 | 53 | 95 | 1.0 | 1.0 | 0.00 | 0.10 | 0.10 | 63 | 1013.4 |
| 20260502182950 | 54 | 4 | 2.0 | 3.0 | 0.00 | 0.10 | 0.10 | 59 | 1013.4 |
| 20260502182446 | 55 | 53 | 1.0 | 1.0 | 0.00 | 0.10 | 0.10 | 62 | 1013.6 |
| 20260502181942 | 56 | 122 | 3.0 | 3.0 | 0.00 | 0.10 | 0.10 | 62 | 1013.5 |
| 20260502181440 | 56 | 106 | 0.0 | 0.0 | 0.00 | 0.10 | 0.10 | 60 | 1013.6 |
| 20260502180938 | 54 | 112 | 1.0 | 1.0 | 0.00 | 0.10 | 0.10 | 66 | 1013.6 |
| 20260502180435 | 51 | 147 | 1.0 | 1.0 | 0.00 | 0.10 | 0.10 | 67 | 1013.6 |
| 20260502170355 | 55 | 44 | 1.0 | 1.0 | 0.00 | 0.10 | 0.10 | 70 | 1014.1 |
| 20260502164342 | 51 | 25 | 3.0 | 3.0 | 0.00 | 0.10 | 0.10 | 71 | 1014.2 |
| 20260502163838 | 50 | 172 | 3.0 | 3.0 | 0.00 | 0.10 | 0.10 | 79 | 1014.1 |
| 20260502163334 | 50 | 190 | 1.0 | 2.0 | 0.00 | 0.10 | 0.10 | 81 | 1014.2 |
| 20260502162832 | 49 | 311 | 2.0 | 2.0 | 0.00 | 0.10 | 0.10 | 82 | 1014.4 |
| 20260502162328 | 47 | 218 | 2.0 | 4.0 | 0.00 | 0.10 | 0.10 | 87 | 1014.4 |
| 20260502161826 | 47 | 115 | 1.0 | 1.0 | 0.00 | 0.10 | 0.10 | 88 | 1014.2 |
| 20260502161321 | 48 | 340 | 4.0 | 7.0 | 0.00 | 0.10 | 0.10 | 85 | 1014.5 |
| 20260502160820 | 49 | 108 | 1.0 | 2.0 | 0.00 | 0.10 | 0.10 | 84 | 1014.5 |
| 20260502160318 | 49 | 110 | 0.0 | 1.0 | 0.00 | 0.10 | 0.10 | 82 | 1014.1 |
| 20260502152253 | 48 | 94 | 2.0 | 2.0 | 0.00 | 0.10 | 0.10 | 85 | 1014.2 |
| 20260502151750 | 48 | 53 | 2.0 | 3.0 | 0.00 | 0.10 | 0.10 | 85 | 1014.1 |
| 20260502151247 | 49 | 293 | 4.0 | 6.0 | 0.00 | 0.10 | 0.10 | 84 | 1014.0 |
| 20260502150745 | 49 | 77 | 2.0 | 3.0 | 0.00 | 0.10 | 0.10 | 84 | 1014.2 |
| 20260502150242 | 49 | 112 | 1.0 | 1.0 | 0.00 | 0.10 | 0.10 | 85 | 1014.2 |
| 20260502130630 | 48 | 342 | 2.0 | 2.0 | 0.00 | 0.10 | 0.10 | 90 | 1014.0 |
| 20260502130128 | 47 | 112 | 1.0 | 1.0 | 0.00 | 0.10 | 0.10 | 91 | 1013.8 |
| 20260502123614 | 46 | 112 | 0.0 | 1.0 | 0.00 | 0.10 | 0.10 | 99 | 1014.0 |
| 20260502123110 | 46 | 123 | 0.0 | 1.0 | 0.00 | 0.10 | 0.10 | 99 | 1013.9 |
| 20260502122606 | 46 | 82 | 1.0 | 1.0 | 0.00 | 0.10 | 0.10 | 99 | 1014.2 |
| 20260502122103 | 45 | 125 | 0.0 | 1.0 | 0.00 | 0.10 | 0.10 | 99 | 1014.2 |
| 20260502121601 | 46 | 127 | 0.0 | 1.0 | 0.00 | 0.10 | 0.10 | 99 | 1014.2 |
| 20260502121058 | 45 | 108 | 1.0 | 1.0 | 0.00 | 0.10 | 0.10 | 99 | 1013.9 |
| 20260502120554 | 45 | 101 | 1.0 | 1.0 | 0.00 | 0.10 | 0.10 | 99 | 1014.1 |
| 20260502115550 | 44 | 111 | 0.0 | 0.0 | 0.00 | 0.10 | 0.10 | 99 | 1014.2 |
| 20260502115045 | 44 | 113 | 0.0 | 0.0 | 0.00 | 0.10 | 0.10 | 99 | 1014.1 |
| 20260502114542 | 44 | 97 | 0.0 | 1.0 | 0.00 | 0.10 | 0.10 | 99 | 1014.1 |
| 20260502114038 | 44 | 110 | 1.0 | 1.0 | 0.00 | 0.10 | 0.10 | 99 | 1014.1 |
| 20260502113537 | 44 | 112 | 0.0 | 0.0 | 0.00 | 0.10 | 0.10 | 99 | 1014.1 |
| 20260502113035 | 44 | 112 | 0.0 | 0.0 | 0.00 | 0.10 | 0.10 | 99 | 1013.8 |
| 20260502112532 | 44 | 101 | 0.0 | 0.0 | 0.00 | 0.10 | 0.10 | 99 | 1014.0 |
| 20260502112030 | 44 | 116 | 0.0 | 0.0 | 0.00 | 0.10 | 0.10 | 99 | 1013.9 |
| 20260502111527 | 44 | 115 | 0.0 | 0.0 | 0.00 | 0.10 | 0.10 | 99 | 1013.8 |
| 20260502111024 | 44 | 109 | 0.0 | 0.0 | 0.00 | 0.10 | 0.10 | 99 | 1014.0 |
| 20260502110521 | 44 | 123 | 0.0 | 1.0 | 0.00 | 0.10 | 0.10 | 99 | 1013.8 |
| 20260502110019 | 44 | 112 | 0.0 | 0.0 | 0.00 | 0.10 | 0.10 | 99 | 1013.9 |
| 20260502105516 | 44 | 113 | 0.0 | 0.0 | 0.00 | 0.10 | 0.10 | 99 | 1013.7 |
| 20260502105014 | 43 | 115 | 0.0 | 0.0 | 0.00 | 0.10 | 0.10 | 99 | 1013.5 |
| 20260502104511 | 43 | 117 | 0.0 | 0.0 | 0.00 | 0.10 | 0.10 | 99 | 1013.5 |
| 20260502104009 | 43 | 115 | 0.0 | 0.0 | 0.00 | 0.10 | 0.10 | 99 | 1013.4 |
| 20260502103506 | 43 | 116 | 0.0 | 0.0 | 0.00 | 0.10 | 0.10 | 99 | 1013.2 |
| 20260502103004 | 43 | 115 | 0.0 | 0.0 | 0.00 | 0.10 | 0.10 | 99 | 1013.4 |
| 20260502102459 | 43 | 116 | 0.0 | 0.0 | 0.05 | 0.10 | 0.10 | 99 | 1013.6 |
| 20260502101956 | 43 | 115 | 0.0 | 0.0 | 0.05 | 0.10 | 0.10 | 99 | 1013.4 |
| 20260502101454 | 43 | 114 | 0.0 | 0.0 | 0.00 | 0.09 | 0.09 | 99 | 1013.4 |
| 20260502100953 | 43 | 110 | 0.0 | 0.0 | 0.07 | 0.09 | 0.09 | 99 | 1013.6 |
| 20260502100451 | 43 | 112 | 0.0 | 0.0 | 0.12 | 0.09 | 0.09 | 99 | 1013.6 |
| 20260502091426 | 44 | 93 | 0.0 | 0.0 | 0.00 | 0.04 | 0.04 | 97 | 1013.4 |
| 20260502090922 | 44 | 103 | 0.0 | 0.0 | 0.05 | 0.04 | 0.04 | 97 | 1013.2 |
| 20260502090420 | 44 | 114 | 0.0 | 1.0 | 0.12 | 0.04 | 0.04 | 97 | 1013.3 |
| 20260502071314 | 45 | 109 | 1.0 | 1.0 | 0.00 | 0.00 | 0.00 | 94 | 1013.6 |
| 20260502070813 | 45 | 119 | 1.0 | 2.0 | 0.00 | 0.00 | 0.00 | 93 | 1013.7 |
| 20260502070310 | 45 | 112 | 0.0 | 0.0 | 0.00 | 0.00 | 0.00 | 93 | 1013.5 |
| 20260502065809 | 45 | 94 | 0.0 | 1.0 | 0.00 | 0.00 | 0.00 | 93 | 1013.7 |
| 20260502065306 | 45 | 110 | 1.0 | 1.0 | 0.00 | 0.00 | 0.00 | 93 | 1013.4 |
| 20260502064804 | 46 | 95 | 0.0 | 1.0 | 0.00 | 0.00 | 0.00 | 93 | 1013.7 |
| 20260502064302 | 45 | 115 | 0.0 | 0.0 | 0.00 | 0.00 | 0.00 | 93 | 1013.8 |
| 20260502063759 | 46 | 114 | 0.0 | 0.0 | 0.00 | 0.00 | 0.00 | 93 | 1013.5 |
| 20260502063257 | 46 | 116 | 0.0 | 0.0 | 0.00 | 0.00 | 0.00 | 93 | 1013.7 |
| 20260502062753 | 46 | 112 | 0.0 | 0.0 | 0.00 | 0.00 | 0.00 | 93 | 1013.7 |
| 20260502062251 | 46 | 102 | 0.0 | 0.0 | 0.00 | 0.00 | 0.00 | 93 | 1013.7 |
| 20260502061750 | 46 | 108 | 0.0 | 0.0 | 0.00 | 0.00 | 0.00 | 93 | 1013.7 |
| 20260502061248 | 46 | 107 | 0.0 | 0.0 | 0.00 | 0.00 | 0.00 | 92 | 1013.9 |
| 20260502060741 | 46 | 80 | 1.0 | 1.0 | 0.00 | 0.00 | 0.00 | 92 | 1013.7 |
| 20260502060237 | 46 | 113 | 0.0 | 0.0 | 0.00 | 0.00 | 0.00 | 92 | 1013.5 |
| 20260502055736 | 46 | 107 | 0.0 | 0.0 | 0.00 | 0.00 | 0.00 | 92 | 1013.7 |
| 20260502055233 | 46 | 106 | 0.0 | 0.0 | 0.00 | 0.00 | 0.00 | 91 | 1013.8 |
| 20260502054732 | 46 | 108 | 0.0 | 1.0 | 0.00 | 0.00 | 0.00 | 89 | 1014.0 |
| 20260502054229 | 47 | 82 | 1.0 | 2.0 | 0.00 | 0.00 | 0.00 | 86 | 1014.2 |
| 20260502053727 | 47 | 116 | 0.0 | 0.0 | 0.00 | 0.00 | 0.00 | 84 | 1014.1 |
| 20260502053224 | 47 | 112 | 0.0 | 0.0 | 0.00 | 0.00 | 0.00 | 83 | 1014.0 |
| 20260502052722 | 47 | 98 | 0.0 | 0.0 | 0.00 | 0.00 | 0.00 | 84 | 1014.0 |
| 20260502052220 | 47 | 108 | 0.0 | 0.0 | 0.00 | 0.00 | 0.00 | 84 | 1013.9 |
| 20260502051717 | 47 | 84 | 0.0 | 0.0 | 0.00 | 0.00 | 0.00 | 84 | 1013.9 |
| 20260502051215 | 0 | 0.0 | 0.0 | 0.00 | 0.00 | 0.00 | 1014.0 | ||
| 20260502050711 | 48 | 109 | 0.0 | 0.0 | 0.00 | 0.00 | 0.00 | 82 | 1013.6 |
| 20260502050208 | 48 | 109 | 0.0 | 0.0 | 0.00 | 0.00 | 0.00 | 82 | 1013.7 |
| 20260502045705 | 48 | 109 | 0.0 | 0.0 | 0.00 | 0.00 | 0.00 | 82 | 1013.5 |
| 20260502045202 | 48 | 109 | 0.0 | 1.0 | 0.00 | 0.00 | 0.00 | 82 | 1013.6 |
| 20260502044658 | 48 | 111 | 0.0 | 0.0 | 0.00 | 0.00 | 0.00 | 82 | 1013.9 |
| 20260502044154 | 48 | 110 | 0.0 | 0.0 | 0.00 | 0.00 | 0.00 | 82 | 1013.8 |
| 20260502043653 | 48 | 117 | 0.0 | 0.0 | 0.00 | 0.00 | 0.00 | 81 | 1013.9 |
| 20260502043150 | 48 | 117 | 0.0 | 0.0 | 0.00 | 0.00 | 0.00 | 79 | 1014.0 |
| 20260502042649 | 48 | 111 | 0.0 | 0.0 | 0.00 | 0.00 | 0.00 | 78 | 1014.0 |
| 20260502042146 | 48 | 109 | 0.0 | 0.0 | 0.00 | 0.00 | 0.00 | 77 | 1013.7 |
| 20260502041644 | 48 | 109 | 0.0 | 0.0 | 0.00 | 0.00 | 0.00 | 77 | 1013.9 |
| 20260502041141 | 48 | 109 | 0.0 | 0.0 | 0.00 | 0.00 | 0.00 | 78 | 1013.8 |
| 20260502040638 | 48 | 105 | 0.0 | 1.0 | 0.00 | 0.00 | 0.00 | 77 | 1013.6 |
| 20260502040135 | 48 | 105 | 1.0 | 1.0 | 0.00 | 0.00 | 0.00 | 78 | 1013.9 |
| 20260502035631 | 48 | 110 | 0.0 | 0.0 | 0.00 | 0.00 | 0.00 | 78 | 1014.1 |
| 20260502035128 | 48 | 112 | 0.0 | 1.0 | 0.00 | 0.00 | 0.00 | 78 | 1013.8 |
| 20260502034626 | 48 | 115 | 0.0 | 0.0 | 0.00 | 0.00 | 0.00 | 78 | 1013.8 |
| 20260502034124 | 48 | 110 | 0.0 | 0.0 | 0.00 | 0.00 | 0.00 | 79 | 1014.0 |
| 20260502033622 | 48 | 112 | 0.0 | 0.0 | 0.00 | 0.00 | 0.00 | 79 | 1013.6 |
| 20260502033119 | 48 | 110 | 0.0 | 1.0 | 0.00 | 0.00 | 0.00 | 78 | 1013.7 |
| 20260502032615 | 48 | 125 | 0.0 | 1.0 | 0.00 | 0.00 | 0.00 | 79 | 1014.0 |
| 20260502032112 | 48 | 112 | 0.0 | 0.0 | 0.00 | 0.00 | 0.00 | 78 | 1014.1 |
| 20260502031610 | 49 | 119 | 0.0 | 0.0 | 0.00 | 0.00 | 0.00 | 78 | 1014.1 |
| 20260502031107 | 49 | 123 | 0.0 | 1.0 | 0.00 | 0.00 | 0.00 | 77 | 1014.2 |
| 20260502030606 | 49 | 126 | 1.0 | 1.0 | 0.00 | 0.00 | 0.00 | 77 | 1014.1 |
| 20260502030103 | 48 | 114 | 0.0 | 0.0 | 0.00 | 0.00 | 0.00 | 77 | 1014.0 |
| 20260502025600 | 48 | 130 | 0.0 | 1.0 | 0.00 | 0.00 | 0.00 | 78 | 1014.0 |
| 20260502025058 | 49 | 113 | 0.0 | 0.0 | 0.00 | 0.00 | 0.00 | 78 | 1013.8 |
| 20260502024556 | 48 | 115 | 0.0 | 0.0 | 0.00 | 0.00 | 0.00 | 78 | 1014.0 |
| 20260502024054 | 48 | 109 | 0.0 | 0.0 | 0.00 | 0.00 | 0.00 | 78 | 1014.0 |
| 20260502023551 | 49 | 109 | 0.0 | 0.0 | 0.00 | 0.00 | 0.00 | 78 | 1013.8 |
| 20260502023049 | 49 | 110 | 0.0 | 0.0 | 0.00 | 0.00 | 0.00 | 77 | 1014.1 |